CAPE
18 21 17 17 0 0 0 0 0 0 0 0 0 0 0 0 0 0 0 0 0 0 0 0 0 0 0 0 0 0 0 0 0 0 0 0 0 0 0 0 0 0 0
16 4 18 18 2 0 0 0 0 0 0 0 0 0 0 0 0 0 0 0 6 5 0 0 0 0 0 0 0 0 0 0 0 0 0 0 0 0 0 0 1 1 0
15 20 17 9 7 0 0 0 0 0 0 0 0 0 0 2 4 2 0 0 4 9 7 0 0 0 0 0 0 0 0 0 0 0 0 0 1 0 1 1 1 1 2
5 16 30 21 0 0 0 0 0 0 0 0 0 0 0 0 0 0 0 0 0 0 0 0 0 0 0 0 0 0 0 0 0 0 0 0 1 2 1 1 1 1 1
13 20 42 0 0 0 0 0 0 0 0 0 0 0 0 0 0 0 0 0 0 0 0 0 0 0 0 0 0 0 0 0 0 0 0 0 0 1 1 2 2 1 0
47 10 0 0 0 0 0 0 0 0 0 0 0 0 0 0 0 0 0 0 0 0 0 0 0 0 0 0 0 0 0 0 0 0 0 0 0 1 3 1 1 1 0
0 0 0 0 0 0 0 0 0 0 0 0 0 0 0 0 0 0 0 0 0 0 0 0 0 0 0 0 0 0 0 0 0 0 0 0 0 0 1 1 0 0 0
0 0 0 0 0 0 0 0 0 0 0 0 0 0 0 0 0 0 0 0 0 0 0 0 0 0 0 0 0 0 0 0 0 0 0 1 2 1 0 1 1 0 0
0 0 0 0 0 0 0 0 0 0 0 0 0 0 0 0 0 0 0 0 1 1 1 1 1 0 0 0 0 0 0 0 0 0 0 0 1 0 0 0 0 0 0
0 0 0 0 0 0 0 0 0 0 0 0 0 0 0 0 1 0 0 0 0 0 0 0 0 0 0 0 0 0 0 0 0 0 0 0 0 0 0 0 0 0 0
0 0 0 0 0 0 0 0 0 0 0 0 0 1 1 1 1 0 0 0 0 0 0 0 0 0 0 0 0 0 0 0 0 0 0 0 0 0 0 0 0 0 0
0 0 0 0 0 0 0 0 0 0 0 0 0 0 2 0 0 0 0 0 0 0 0 0 0 0 0 0 0 0 0 0 0 0 0 0 0 0 0 0 0 0 0
0 0 0 0 0 0 0 0 0 0 0 0 0 0 1 0 0 0 0 0 0 0 0 0 0 0 0 0 0 0 0 0 0 0 0 0 0 0 0 0 0 0 0
0 0 0 0 0 0 0 0 0 0 0 0 1 1 0 0 0 0 0 0 0 0 0 0 0 0 0 0 0 0 0 0 0 0 0 0 0 0 0 0 0 0 0
0 0 0 0 0 0 0 0 0 0 0 0 0 0 0 0 0 0 0 0 0 0 0 0 0 0 0 0 0 0 0 0 0 0 0 0 0 0 0 0 0 0 0
0 0 0 0 0 0 0 0 0 0 0 0 0 0 0 0 0 0 0 0 0 0 0 0 0 0 0 0 0 0 0 0 0 0 0 0 0 0 0 0 0 0 0
0 0 0 0 0 0 0 0 0 0 0 0 0 0 0 0 0 0 0 0 0 0 0 0 0 0 0 0 0 0 0 0 0 0 0 0 0 0 0 0 0 0 0
0 0 0 0 0 0 0 0 0 0 0 1 1 1 0 0 1 0 0 1 1 0 0 0 0 0 0 0 0 0 0 0 0 0 0 0 0 0 0 0 0 0 0
0 0 0 0 0 0 0 0 0 0 0 0 1 0 0 1 1 0 0 0 0 0 0 0 0 0 0 0 0 0 0 0 0 0 0 0 0 0 0 0 0 0 0
0 0 0 0 0 0 0 0 0 0 0 0 0 0 0 0 0 0 0 0 0 0 0 0 0 0 0 0 0 0 0 0 0 0 0 0 0 0 0 0 0 0 0
0 0 0 0 0 0 0 0 0 0 0 0 0 0 0 0 0 0 0 0 0 0 0 0 0 0 0 0 0 0 0 0 0 0 0 0 0 0 0 0 0 0 0
0 0 0 0 0 0 0 0 0 0 0 0 0 0 0 0 0 0 0 0 0 0 0 0 0 0 0 0 0 0 0 0 0 0 0 0 0 0 0 0 0 0 0
0 0 0 0 0 0 0 0 0 0 0 0 0 0 0 0 0 0 0 0 0 0 0 0 0 0 0 0 0 0 0 0 0 0 0 0 0 0 0 0 0 0 0
0 0 0 0 0 0 0 0 0 0 0 0 0 0 0 0 0 0 0 0 0 0 0 0 0 0 0 0 0 0 0 0 0 0 0 0 0 0 0 0 0 0 0
0 0 0 0 0 0 1 1 0 0 0 0 0 0 0 0 0 0 0 0 0 0 0 0 0 0 0 0 0 0 0 0 0 0 0 0 0 0 0 0 0 0 0
0 0 1 1 1 0 0 0 0 0 0 0 0 0 0 0 0 0 0 0 0 0 0 0 0 0 0 0 0 0 0 0 0 0 0 0 0 0 0 0 0 0 0
CIN
-356 -336 -322 -297 0 0 0 0 0 0 0 0 0 0 0 0 0 0 0 0 0 0 0 0 0 0 0 0 0 0 0 0 0 0 0 0 0 0 0 0 0 0 0
-298 -304 -287 -274 -286 0 0 0 0 0 0 0 0 0 0 0 0 0 0 0 -75 -67 -5 0 0 0 0 0 0 0 0 0 0 0 0 0 0 0 0 0 0 0 0
-282 -258 -258 -258 -240 0 0 0 0 0 0 0 0 0 0 -72 -62 -52 0 0 -48 -65 -65 0 0 0 0 0 0 0 0 0 0 0 0 0 0 0 0 0 0 0 0
-146 -240 -205 -195 -129 0 0 0 0 0 0 0 0 0 0 0 0 0 0 0 0 0 0 0 0 0 0 0 0 0 0 0 0 0 0 0 0 0 0 0 0 0 0
-261 -221 -177 -7 0 0 0 0 0 0 0 0 0 0 0 0 0 0 0 0 0 0 0 0 0 0 0 0 0 0 0 0 0 0 0 0 0 0 0 0 0 0 0
-232 -267 0 0 0 0 0 0 0 0 0 0 0 0 0 0 0 0 0 0 0 0 0 0 0 0 0 0 0 0 0 0 0 0 0 0 0 0 0 0 0 0 0
0 0 0 0 0 0 0 0 0 0 0 0 0 0 0 0 0 0 0 0 0 0 0 0 0 0 0 0 0 0 0 0 0 0 0 0 0 0 0 0 0 0 0
0 0 0 0 0 0 0 0 0 0 0 0 0 0 0 0 0 0 0 0 0 0 0 0 0 0 0 0 0 0 0 0 0 0 0 0 0 0 0 0 0 0 0
0 0 0 0 0 0 0 0 0 0 0 0 0 0 0 0 0 0 0 0 0 0 0 0 0 0 0 0 0 0 0 0 0 0 0 0 0 0 0 0 0 0 0
0 0 0 0 0 0 0 0 0 0 0 0 0 0 0 0 0 0 0 0 0 0 0 0 0 0 0 0 0 0 0 0 0 0 0 0 0 0 0 0 0 0 0
0 0 0 0 0 0 0 0 0 0 0 0 0 0 0 -0 -0 0 0 0 0 0 0 0 0 0 0 0 0 0 0 0 0 0 0 0 0 0 0 0 0 0 0
0 0 0 0 0 0 0 0 0 0 0 0 0 0 0 0 0 0 0 0 0 0 0 0 0 0 0 0 0 0 0 0 0 0 0 0 0 0 0 0 0 0 0
0 0 0 0 0 0 0 0 0 0 0 0 0 0 0 0 0 0 0 0 0 0 0 0 -0 0 0 0 -0 0 0 0 0 0 0 0 0 0 0 0 0 0 0
0 0 0 0 0 0 0 0 0 0 0 0 0 0 0 0 0 0 0 0 0 0 0 0 0 0 0 0 0 0 0 0 0 0 0 0 0 0 0 0 0 0 0
0 0 0 0 0 0 0 0 0 0 0 0 0 0 0 0 0 0 0 0 0 0 0 0 0 0 0 0 0 0 0 0 0 0 0 0 0 0 0 0 0 0 0
0 0 0 0 0 0 0 0 0 0 0 0 0 0 0 0 0 0 0 0 0 0 0 0 0 0 0 0 0 0 0 0 0 0 0 0 0 0 0 0 0 0 0
0 0 0 0 0 0 0 0 0 0 0 0 0 0 0 0 0 0 0 0 0 0 0 0 0 0 0 0 0 0 0 0 0 0 0 0 0 0 0 0 0 0 0
0 0 0 0 0 0 0 0 0 0 0 0 0 0 0 0 0 0 0 -0 0 0 0 0 0 0 0 0 0 0 0 0 0 0 0 0 0 0 0 0 0 0 0
0 0 0 0 0 0 0 0 0 0 0 0 0 0 0 0 0 0 -0 0 0 0 0 0 0 0 0 0 0 0 0 0 0 0 0 0 0 0 0 0 0 0 0
0 0 0 0 0 0 0 0 0 0 0 0 0 0 0 0 0 0 0 0 0 0 0 0 0 0 0 0 0 0 0 0 0 0 0 0 0 0 0 0 0 0 0
0 0 0 0 0 0 0 0 0 0 0 0 0 0 0 0 0 -0 0 0 0 0 0 0 0 0 0 0 0 0 0 0 0 0 0 0 0 0 0 0 0 0 0
0 0 0 0 0 0 0 0 0 0 0 0 0 0 0 0 0 0 0 0 0 0 0 0 0 0 0 0 0 0 0 0 0 0 0 0 0 0 0 0 0 0 0
0 0 0 0 0 0 0 0 0 0 0 0 0 0 0 0 0 0 0 0 0 0 0 0 0 0 0 0 0 0 0 0 0 0 0 0 0 0 0 0 0 0 0
0 0 0 0 0 0 0 0 0 0 0 0 0 0 0 0 0 0 0 0 0 0 0 0 0 0 0 0 0 0 0 0 0 0 0 0 0 0 0 0 0 0 0
0 0 0 0 0 0 0 0 0 0 0 0 0 0 0 0 0 0 0 0 0 0 0 0 0 0 0 0 0 0 0 0 0 0 0 0 0 0 0 0 0 0 0
0 0 0 0 0 0 0 0 0 0 0 0 0 0 0 0 0 0 0 0 0 0 0 0 0 0 0 0 0 0 0 0 0 0 0 0 0 0 0 0 0 0 0
Wind_Speed
7 6 5 5 5 5 7 8 9 10 12 13 13 14 14 14 14 13 14 16 16 18 19 19 20 19 19 18 22 25 26 27 30 29 26 24 20 17 17 17 15 15 16
8 7 6 6 6 7 7 9 12 15 15 16 16 17 15 15 15 17 17 18 19 19 20 21 21 21 20 22 24 26 26 26 28 30 26 24 22 18 16 15 16 17 17
8 8 8 9 8 8 7 10 14 17 18 19 19 19 18 19 21 20 19 20 21 20 21 20 20 19 21 24 25 26 27 25 24 25 25 22 22 17 16 16 17 16 16
10 10 9 10 9 7 9 12 14 16 18 19 20 20 22 22 24 24 20 21 20 22 24 24 23 21 22 24 26 25 25 26 26 25 24 23 21 18 16 16 18 17 16
12 12 12 11 9 9 12 14 15 17 18 18 19 21 22 24 26 26 26 23 23 24 25 23 22 23 23 23 23 26 26 27 26 24 23 23 22 20 17 18 18 17 18
13 14 12 9 9 12 13 14 16 18 16 19 22 21 23 27 27 26 24 24 23 25 20 20 21 21 23 24 25 26 26 26 25 25 25 25 23 21 18 18 18 18 21
13 12 10 8 9 9 12 15 16 13 19 22 23 26 26 27 28 26 27 25 25 22 20 20 21 22 22 23 24 24 25 25 25 26 27 27 26 23 20 20 19 19 21
10 10 7 6 6 10 13 14 15 20 19 22 22 25 26 28 27 27 25 23 23 22 21 21 22 22 23 22 23 24 25 26 26 26 26 27 27 27 25 22 21 20 20
9 9 4 3 5 7 14 21 22 23 25 24 23 24 26 26 27 26 25 24 23 23 21 21 21 23 22 23 24 24 25 26 27 26 26 26 27 27 26 22 19 18 22
8 3 1 2 9 15 21 24 24 24 24 24 23 23 25 26 25 25 24 23 24 23 22 22 22 22 23 24 23 22 25 25 25 26 26 25 25 25 24 22 17 17 19
3 1 3 8 13 19 23 19 18 20 20 21 23 24 24 25 25 24 23 23 21 20 21 21 21 22 23 23 21 20 21 20 23 24 25 25 26 26 24 22 18 12 13
1 4 8 11 16 17 13 15 16 17 19 23 23 24 24 24 24 24 23 21 19 19 18 18 20 21 20 20 20 20 20 20 21 24 24 26 26 27 25 23 18 10 10
4 8 10 12 12 12 11 12 14 17 21 22 23 24 26 25 25 24 22 20 17 16 16 17 19 19 19 20 20 20 20 20 22 23 24 25 25 25 24 21 19 14 12
6 7 7 9 9 10 11 12 15 18 20 22 24 26 24 23 22 20 19 18 15 15 15 16 17 17 18 19 20 19 20 21 22 22 22 23 23 22 22 21 19 17 13
4 5 7 8 9 9 11 13 15 15 18 21 21 22 22 20 16 15 17 14 13 12 13 14 16 17 17 18 19 20 20 21 21 21 21 22 22 21 21 20 19 17 14
4 6 7 7 8 10 12 14 16 16 16 16 16 17 16 14 10 11 13 12 11 11 13 14 15 16 16 17 18 18 19 19 20 20 21 21 21 21 21 20 17 15 14
4 5 5 7 8 9 10 13 15 17 17 16 15 13 12 11 10 11 11 11 11 12 14 13 14 15 16 16 16 17 17 18 18 19 20 20 20 20 20 19 18 16 15
5 4 5 6 7 7 9 11 12 14 15 14 14 13 11 10 10 10 10 10 10 12 12 12 12 13 13 14 15 15 16 16 17 17 17 17 18 19 19 17 16 16 16
4 5 6 5 5 6 8 9 11 12 11 11 12 13 12 11 10 10 10 9 9 9 10 11 10 11 11 12 13 13 14 14 15 15 15 15 15 17 18 17 16 16 15
3 4 4 5 5 7 7 10 10 9 8 9 9 9 9 9 8 8 9 9 8 9 9 10 10 10 10 11 11 12 13 14 14 14 15 15 15 15 15 15 15 15 15
5 3 4 4 4 5 8 9 8 7 6 8 7 7 6 6 6 6 7 8 8 9 9 10 10 10 10 10 11 11 12 13 13 14 14 14 14 14 14 14 14 14 15
3 4 3 3 4 8 9 10 8 6 5 7 7 6 5 6 5 6 6 7 8 8 8 9 9 9 9 9 10 10 11 12 12 13 13 14 14 15 15 15 14 13 13
4 3 2 5 8 9 10 9 8 5 4 6 7 5 4 4 4 5 5 6 7 8 8 8 8 9 10 10 10 10 11 11 12 13 13 13 13 13 14 14 14 13 12
1 2 5 8 9 9 8 8 6 4 4 6 7 5 3 3 4 5 5 5 7 8 8 9 9 9 10 10 10 10 10 11 11 11 12 12 12 13 12 13 13 12 11
3 7 9 9 9 8 7 7 4 3 3 5 5 5 3 2 2 3 4 4 5 6 8 9 8 8 9 9 9 9 10 10 11 11 12 12 12 12 12 12 12 12 11
7 9 9 8 8 7 5 4 3 3 4 5 4 4 5 3 1 0 4 4 4 4 6 7 7 8 8 9 10 10 10 10 10 11 11 12 11 11 11 11 11 11 11
Wind_Direction
232 240 248 251 254 276 282 290 297 307 309 312 314 312 312 314 318 317 318 321 324 325 325 324 323 326 327 331 330 327 325 324 318 320 326 325 321 315 312 311 314 315 315
244 238 248 264 275 283 280 292 300 302 308 307 310 311 309 309 311 313 315 315 316 317 316 316 316 319 321 322 322 321 323 323 318 318 322 322 321 315 309 306 306 308 310
237 252 269 280 278 284 288 301 307 310 314 316 317 320 318 316 316 314 312 312 312 313 315 314 315 318 318 319 320 320 321 324 321 318 318 323 322 317 311 307 303 307 309
253 260 268 279 277 280 303 312 313 317 318 322 328 331 330 328 326 324 324 320 319 322 321 317 317 318 317 318 320 322 323 322 320 318 318 319 319 318 310 301 299 301 303
255 265 274 291 297 307 310 315 322 326 327 331 332 334 337 332 328 331 328 326 321 322 322 322 324 323 323 323 322 322 321 320 319 319 317 316 314 312 303 302 297 295 300
259 276 286 294 304 311 316 319 324 326 335 337 335 333 332 326 325 332 330 325 324 323 323 325 328 329 327 325 325 326 325 322 321 319 315 311 309 308 304 299 296 292 295
274 284 287 294 304 315 322 325 326 335 340 337 334 334 328 329 331 332 327 326 324 326 324 324 326 328 326 326 329 331 331 330 327 321 316 314 311 308 302 296 293 289 291
280 284 292 309 317 320 325 331 333 327 325 331 330 330 331 331 336 338 337 336 335 332 330 327 328 327 326 327 328 329 328 328 328 327 322 318 315 312 305 296 291 292 297
274 281 280 302 318 327 323 322 321 323 319 327 333 333 334 336 339 341 339 336 335 335 336 335 332 329 331 329 326 325 326 327 330 331 328 324 320 315 312 304 290 285 290
261 228 242 310 316 314 317 319 320 318 325 331 339 342 341 340 341 340 340 338 335 336 338 336 335 334 332 330 330 331 328 330 334 336 336 335 331 326 322 312 296 282 288
184 205 301 308 314 318 319 323 322 327 332 336 339 341 342 342 341 341 343 339 339 340 339 337 339 337 338 339 340 340 341 346 343 343 342 336 333 337 338 328 316 293 286
326 321 320 319 322 328 333 331 333 334 335 334 335 335 338 339 341 342 342 342 344 343 344 346 344 345 347 349 349 351 351 353 350 345 340 334 338 340 344 346 341 331 310
326 324 326 331 339 338 339 337 336 338 336 334 334 333 332 335 336 337 340 344 346 352 351 351 352 354 357 356 353 351 353 357 354 346 342 341 344 347 353 357 359 3 347
326 331 342 346 347 342 343 342 340 338 338 336 334 333 333 333 336 341 346 346 354 356 359 2 5 7 2 359 356 359 359 359 357 352 350 349 351 352 355 358 1 3 12
335 339 340 340 340 341 349 347 345 350 347 343 343 342 341 341 345 352 351 357 3 8 17 13 7 5 3 3 3 6 6 3 5 7 3 360 358 357 353 350 351 355 5
327 328 334 339 340 342 346 350 356 357 360 360 1 1 9 18 44 35 23 23 24 34 16 15 13 11 13 13 13 12 13 18 20 18 15 12 8 4 0 357 354 351 348
333 332 337 340 338 340 344 349 351 1 11 13 16 22 29 46 66 66 53 51 55 39 20 25 23 24 23 27 28 29 28 31 32 28 28 26 24 19 13 7 3 1 354
329 338 336 332 337 347 352 358 3 5 8 18 26 33 45 66 74 69 70 69 56 29 29 34 42 42 43 42 41 41 41 40 41 44 46 43 36 30 25 27 21 3 356
324 328 337 345 351 356 0 5 4 10 21 23 23 23 39 54 56 58 59 51 57 56 50 43 60 59 64 60 57 55 51 50 49 52 54 54 47 37 35 37 38 24 12
330 347 347 343 347 356 3 1 3 12 18 13 16 22 35 37 43 48 40 45 57 64 55 51 67 68 72 75 71 66 64 59 60 63 60 59 58 46 45 48 51 44 28
323 339 345 349 360 9 358 355 4 12 6 3 12 20 38 50 52 49 49 48 68 71 66 69 69 72 73 82 83 78 74 68 68 68 67 65 64 56 47 50 51 49 49
319 331 345 357 351 346 347 349 357 6 8 352 3 16 49 48 51 44 57 76 59 50 63 63 67 68 80 83 88 86 78 73 71 68 68 66 67 62 53 47 44 45 45
318 332 343 331 331 338 346 352 356 13 17 350 349 7 42 75 46 32 60 79 48 35 48 60 62 62 64 77 83 84 79 80 77 74 72 70 70 71 64 53 48 45 50
327 326 321 319 330 338 346 347 358 19 25 344 336 351 25 74 81 45 53 51 29 38 44 49 56 63 66 75 80 82 81 74 75 77 77 75 72 72 73 68 61 61 60
321 317 315 317 327 336 341 345 1 21 8 344 333 338 357 23 81 48 23 38 30 28 27 35 57 71 76 80 82 78 71 67 68 71 73 72 74 76 75 75 70 65 58
309 314 319 324 333 335 338 349 357 354 339 335 331 324 317 324 1 310 339 353 15 27 19 28 43 61 67 69 69 63 58 59 61 64 68 69 72 77 77 77 74 69 58